User: anonymous   Login
Location: Unspecified
(0.0000°N, 0.0000°E)
Time: 08:55:52
(UTC+00:00)
Language:

BEESAT 4 - Orbit

View from above orbital plane
View from above orbital plane
View from above satellite
View from above satellite

Ground track
Ground track

The orbit data is extracted from the following two-line orbital elements,

1 41619U 16040W   19345.43015779 +.00001143 +00000-0 +50679-4 0  9990
2 41619 097.3470 044.2042 0012687 121.7205 238.5271 15.23529111180615
Epoch (UTC): 11 December 2019 10:19:25
Eccentricity: 0.0012687
inclination: 97.3470°
perigee height: 486 km
apogee height: 504 km
right ascension of ascending node: 44.2042°
argument of perigee: 121.7205°
revolutions per day: 15.23529111
mean anomaly at epoch: 238.5271°
orbit number at epoch: 18061

The dashed part of the orbit path shows where the satellite is in the earth's shadow,  

DLR